Погода в Джокьякарте

Индонезия     7°47′48″S   110°21′52″E
темп.,
°C
ветер,
м/с
пор.,
м/с
влажн.,
%
обл.,
%
осадки,
мм/ч
давл.,
гПа
погр.,
м
8 марта, пн
пн801:00+23с1189100 1.4 101028
04:00+23с1287100 0.0 100928
07:00+24св1282100 0.0 101191
10:00+32ююз125568 0.0 10111112
13:00+30зюз446457 1.7 10091258
16:00+26з378487 6.9 1008817
19:00+24сз269393 9.7 1010362
22:00+23сз1294100 0.8 101154
9 марта, вт
вт901:00+23ссз2292100 1.3 101069
04:00+23ссз1193100 1.2 100931
07:00+23ссз0092100 2.5 101146
10:00+25ююв1185100 0.3 1011242
13:00+26ю1182100 1.3 1009277
16:00+26юв1181100 1.2 1008470
19:00+24в1191100 3.1 101025
22:00+23св0092100 1.4 101224
10 марта, ср
ср1001:00+23сз1195100 1.6 101024
04:00+22с1195100 0.0 100924
07:00+24св1288100 0.0 1011101
10:00+31в1261100 0.0 10121005
13:00+31ююз016588 2.8 10091077
16:00+28ююз117783 6.2 1008637
19:00+24зюз129292 6.7 101025
22:00+24сз1191100 1.0 101225
11 марта, чт
чт1101:00+23ссз119399 2.4 101127
04:00+22св119097 1.7 100925
07:00+24св128389 1.7 1011105
10:00+32в125450 0.0 10111090
13:00+32ю325130 0.4 10091688
16:00+28ю237797 4.2 1008524
19:00+24ю129199 9.3 101026
22:00+24всв1291100 1.4 101225
12 марта, пт
пт1201:00+23ссв1292100 2.3 101153
04:00+22ссв1291100 0.0 101033
07:00+23св128697 0.0 1011114
10:00+30ююз1160100 0.0 1012770
13:00+31ююз435771 0.1 10091353
16:00+28ююз347121 2.4 1009897
19:00+24ю118854 2.9 101124
22:00+24ссв118998 0.0 101224